This is the latest recevied weather packets stored in our database for station/object F4ELU-13. If no packets are shown the sender has not sent any weather packets the latest 10 day(s).
| Time | Temp. | Humidity | Pressure | Rain* | Wind** | Luminosity | Snow |
|---|---|---|---|---|---|---|---|
| 1777790703 | 15.56° C | 62% | 1014.3 hPa | 0 mm | - | - | - |
| 1777790163 | 15.56° C | 64% | 1014.3 hPa | 0 mm | - | - | - |
| 1777789623 | 15.56° C | 62% | 1014.3 hPa | 0 mm | - | - | - |
| 1777789083 | 15° C | 64% | 1014.3 hPa | 0 mm | - | - | - |
| 1777788543 | 14.44° C | 62% | 1014.2 hPa | 0 mm | - | - | - |
| 1777788003 | 13.89° C | 59% | 1014.3 hPa | 0 mm | - | - | - |
| 1777787644 | 13.89° C | 62% | 1014.2 hPa | 0 mm | - | - | - |
| 1777787103 | 13.89° C | 60% | 1014.3 hPa | 0 mm | - | - | - |
| 1777786563 | 14.44° C | 58% | 1014.2 hPa | 0 mm | - | - | - |
| 1777786023 | 13.89° C | 55% | 1014.1 hPa | 0 mm | - | - | - |
| 1777785483 | 13.33° C | 58% | 1014 hPa | 0 mm | - | - | - |
| 1777784943 | 13.89° C | 57% | 1014 hPa | 0 mm | - | - | - |
| 1777784403 | 13.89° C | 56% | 1014 hPa | 0 mm | - | - | - |
| 1777784043 | 13.89° C | 58% | 1014.1 hPa | 0 mm | - | - | - |
| 1777783503 | 13.89° C | 55% | 1014.1 hPa | 0 mm | - | - | - |
| 1777782963 | 13.33° C | 57% | 1014.1 hPa | 0 mm | - | - | - |
| 1777782423 | 13.33° C | 57% | 1014.2 hPa | 0 mm | - | - | - |
| 1777781883 | 13.89° C | 54% | 1014.2 hPa | 0 mm | - | - | - |
| 1777781343 | 13.89° C | 53% | 1014.2 hPa | 0 mm | - | - | - |
| 1777780803 | 14.44° C | 51% | 1014.2 hPa | 0 mm | - | - | - |
| 1777780443 | 14.44° C | 50% | 1014.2 hPa | 0 mm | - | - | - |
| 1777779903 | 14.44° C | 49% | 1014.3 hPa | 0 mm | - | - | - |
| 1777779363 | 14.44° C | 49% | 1014.1 hPa | 0 mm | - | - | - |
| 1777778823 | 14.44° C | 49% | 1014.3 hPa | 0 mm | - | - | - |
| 1777778283 | 14.44° C | 50% | 1014.2 hPa | 0 mm | - | - | - |
* Rain latest hour (hover to see other rain measurements)
** Current wind speed in m/s (hover to see current wind gust speed)